When you browse on this site, cookies collect data to enhance your experience and personalize the content and advertising you see.
Visit our Privacy Policy to learn more. By continuing to use the site, you agree to this use of cookies and data.
  • In United Kingdom
  • List of Countries
  • For 7 days
  • Water Temperature
  • Satellite Maps
  • Weather Map
  • Weather Widgets
  • user-avatar
    Login

    Hourly Weather Mokoa

    Today, 20 November, Tuesday

    Time Temperature Precipitation Wind Pressure Humidity
    00:00 +27°C° 0.1 mm 4 mps 753 mmHg 87%
    01:00 +27°C° 0 mm 5 mps 753 mmHg 88%
    02:00 +27°C° 0.3 mm 4 mps 753 mmHg 89%
    03:00 +27°C° 0.3 mm 4 mps 753 mmHg 89%
    04:00 +27°C° 0.3 mm 4 mps 753 mmHg 90%
    05:00 +27°C° 0.2 mm 4 mps 753 mmHg 88%
    06:00 +28°C° 0.2 mm 4 mps 753 mmHg 87%
    07:00 +28°C° 0.2 mm 4 mps 754 mmHg 85%
    08:00 +30°C° 0 mm 5 mps 754 mmHg 78%
    09:00 +32°C° 0 mm 5 mps 754 mmHg 71%
    10:00 +34°C° 0 mm 6 mps 754 mmHg 65%
    11:00 +34°C° 0.1 mm 6 mps 754 mmHg 62%
    12:00 +35°C° 0.1 mm 6 mps 753 mmHg 60%
    13:00 +35°C° 0.1 mm 5 mps 752 mmHg 58%
    14:00 +35°C° 0.1 mm 6 mps 752 mmHg 60%
    15:00 +34°C° 0.1 mm 6 mps 752 mmHg 63%
    16:00 +33°C° 0.1 mm 6 mps 751 mmHg 65%
    17:00 +32°C° 0.1 mm 6 mps 752 mmHg 70%
    18:00 +30°C° 0.1 mm 5 mps 752 mmHg 75%
    19:00 +29°C° 0.1 mm 5 mps 753 mmHg 80%
    20:00 +29°C° 0.2 mm 5 mps 753 mmHg 82%
    21:00 +28°C° 0.2 mm 5 mps 754 mmHg 84%
    22:00 +28°C° 0.2 mm 5 mps 754 mmHg 86%
    23:00 +28°C° 0.5 mm 5 mps 754 mmHg 87%

    Tomorrow, 21 November, Wednesday

    Time Temperature Precipitation Wind Pressure Humidity
    00:00 +28°C° 0.5 mm 5 mps 754 mmHg 88%
    01:00 +28°C° 0.5 mm 5 mps 754 mmHg 89%
    02:00 +28°C° 0 mm 4 mps 754 mmHg 89%
    03:00 +28°C° 0 mm 4 mps 753 mmHg 89%
    04:00 +28°C° 0 mm 4 mps 753 mmHg 89%
    05:00 +28°C° 0 mm 4 mps 754 mmHg 88%
    06:00 +28°C° 0 mm 4 mps 754 mmHg 87%
    07:00 +28°C° 0 mm 5 mps 755 mmHg 86%
    08:00 +30°C° 0 mm 5 mps 755 mmHg 80%
    09:00 +32°C° 0 mm 5 mps 755 mmHg 73%
    10:00 +33°C° 0 mm 6 mps 755 mmHg 66%
    11:00 +34°C° 0.1 mm 6 mps 754 mmHg 64%
    12:00 +35°C° 0.1 mm 6 mps 754 mmHg 61%
    13:00 +35°C° 0.1 mm 6 mps 753 mmHg 59%
    14:00 +34°C° 0.1 mm 6 mps 752 mmHg 61%
    15:00 +34°C° 0.1 mm 6 mps 752 mmHg 64%
    16:00 +33°C° 0.1 mm 6 mps 752 mmHg 66%
    17:00 +32°C° 0 mm 6 mps 752 mmHg 70%
    18:00 +30°C° 0 mm 5 mps 753 mmHg 75%
    19:00 +29°C° 0 mm 5 mps 753 mmHg 79%
    20:00 +28°C° 0.2 mm 5 mps 753 mmHg 81%
    21:00 +28°C° 0.2 mm 5 mps 754 mmHg 83%
    22:00 +28°C° 0.2 mm 5 mps 754 mmHg 84%
    23:00 +28°C° 0.1 mm 5 mps 754 mmHg 85%

    Day after tomorrow, 22 November, Thursday

    Time Temperature Precipitation Wind Pressure Humidity
    00:00 +27°C° 0.1 mm 5 mps 754 mmHg 85%
    01:00 +27°C° 0.1 mm 4 mps 754 mmHg 85%
    02:00 +27°C° 0 mm 4 mps 754 mmHg 86%
    03:00 +26°C° 0 mm 4 mps 754 mmHg 87%
    04:00 +26°C° 0 mm 3 mps 753 mmHg 89%
    05:00 +27°C° 0 mm 3 mps 754 mmHg 88%
    06:00 +27°C° 0 mm 3 mps 754 mmHg 87%
    07:00 +27°C° 0 mm 3 mps 754 mmHg 86%
    08:00 +29°C° 0 mm 3 mps 755 mmHg 77%
    09:00 +30°C° 0 mm 4 mps 755 mmHg 69%
    10:00 +33°C° 0 mm 4 mps 755 mmHg 60%
    11:00 +33°C° 0 mm 4 mps 754 mmHg 56%
    12:00 +34°C° 0 mm 4 mps 753 mmHg 51%
    13:00 +35°C° 0 mm 5 mps 753 mmHg 47%
    14:00 +34°C° 0 mm 4 mps 752 mmHg 52%
    15:00 +33°C° 0 mm 4 mps 752 mmHg 56%
    16:00 +32°C° 0 mm 4 mps 751 mmHg 61%
    17:00 +29°C° 0 mm 4 mps 752 mmHg 68%
    18:00 +28°C° 0 mm 3 mps 752 mmHg 74%
    19:00 +27°C° 0 mm 3 mps 753 mmHg 81%
    20:00 +27°C° 0 mm 3 mps 753 mmHg 83%
    21:00 +26°C° 0 mm 3 mps 754 mmHg 85%
    22:00 +26°C° 0 mm 3 mps 754 mmHg 87%
    23:00 +26°C° 0.1 mm 3 mps 754 mmHg 88%

    23 November, Friday

    Time Temperature Precipitation Wind Pressure Humidity
    00:00 +26°C° 0.1 mm 3 mps 753 mmHg 89%
    01:00 +26°C° 0.1 mm 3 mps 753 mmHg 90%
    02:00 +26°C° 0.2 mm 3 mps 753 mmHg 90%
    03:00 +26°C° 0.2 mm 3 mps 753 mmHg 91%
    04:00 +26°C° 0.2 mm 3 mps 752 mmHg 91%
    05:00 +27°C° 0.1 mm 3 mps 753 mmHg 90%
    06:00 +27°C° 0.1 mm 3 mps 753 mmHg 89%
    07:00 +28°C° 0.1 mm 3 mps 754 mmHg 87%
    08:00 +29°C° 0 mm 3 mps 754 mmHg 79%
    09:00 +32°C° 0 mm 4 mps 754 mmHg 70%
    10:00 +33°C° 0 mm 4 mps 754 mmHg 61%
    11:00 +34°C° 0 mm 4 mps 754 mmHg 58%
    12:00 +34°C° 0 mm 4 mps 753 mmHg 55%
    13:00 +35°C° 0 mm 4 mps 752 mmHg 51%
    14:00 +34°C° 0 mm 4 mps 752 mmHg 55%
    15:00 +34°C° 0 mm 4 mps 751 mmHg 58%
    16:00 +33°C° 0 mm 4 mps 751 mmHg 61%
    17:00 +30°C° 0 mm 4 mps 751 mmHg 69%
    18:00 +29°C° 0 mm 3 mps 752 mmHg 76%
    19:00 +27°C° 0 mm 3 mps 752 mmHg 83%
    20:00 +27°C° 0 mm 3 mps 753 mmHg 85%
    21:00 +27°C° 0 mm 3 mps 753 mmHg 87%
    22:00 +26°C° 0 mm 3 mps 754 mmHg 89%
    23:00 +26°C° 0.1 mm 2 mps 753 mmHg 90%

    24 November, Saturday

    Time Temperature Precipitation Wind Pressure Humidity
    00:00 +26°C° 0.1 mm 2 mps 753 mmHg 91%
    01:00 +26°C° 0.1 mm 2 mps 753 mmHg 92%
    02:00 +26°C° 0.1 mm 2 mps 753 mmHg 92%
    03:00 +26°C° 0.1 mm 2 mps 752 mmHg 93%
    04:00 +26°C° 0.1 mm 2 mps 752 mmHg 94%
    05:00 +26°C° 0 mm 2 mps 753 mmHg 92%
    06:00 +27°C° 0 mm 2 mps 753 mmHg 90%
    07:00 +27°C° 0 mm 2 mps 754 mmHg 88%
    08:00 +29°C° 0.1 mm 3 mps 754 mmHg 81%
    09:00 +30°C° 0.1 mm 3 mps 754 mmHg 74%
    10:00 +33°C° 0.1 mm 4 mps 754 mmHg 67%
    11:00 +33°C° 0.4 mm 4 mps 753 mmHg 66%
    12:00 +34°C° 0.4 mm 4 mps 753 mmHg 64%
    13:00 +34°C° 0.4 mm 4 mps 752 mmHg 63%
    14:00 +34°C° 0.1 mm 4 mps 752 mmHg 64%
    15:00 +33°C° 0.1 mm 4 mps 751 mmHg 64%
    16:00 +33°C° 0.1 mm 4 mps 751 mmHg 65%
    17:00 +30°C° 0 mm 4 mps 751 mmHg 71%
    18:00 +29°C° 0 mm 3 mps 752 mmHg 77%
    19:00 +28°C° 0 mm 3 mps 753 mmHg 83%
    20:00 +27°C° 0 mm 3 mps 753 mmHg 85%
    21:00 +27°C° 0 mm 3 mps 753 mmHg 87%
    22:00 +27°C° 0 mm 3 mps 753 mmHg 90%
    23:00 +27°C° 0.1 mm 3 mps 753 mmHg 91%

    25 November, Sunday

    Time Temperature Precipitation Wind Pressure Humidity
    00:00 +27°C° 0.1 mm 3 mps 753 mmHg 92%
    01:00 +27°C° 0.1 mm 3 mps 753 mmHg 93%
    02:00 +26°C° 0.3 mm 3 mps 753 mmHg 93%
    03:00 +26°C° 0.3 mm 3 mps 753 mmHg 93%
    04:00 +26°C° 0.3 mm 3 mps 752 mmHg 94%
    05:00 +27°C° 0.1 mm 3 mps 753 mmHg 92%
    06:00 +27°C° 0.1 mm 3 mps 753 mmHg 90%
    07:00 +28°C° 0.1 mm 3 mps 754 mmHg 89%
    08:00 +29°C° 0 mm 3 mps 754 mmHg 79%
    09:00 +32°C° 0 mm 4 mps 754 mmHg 69%
    10:00 +34°C° 0 mm 4 mps 754 mmHg 59%
    11:00 +35°C° 0 mm 4 mps 753 mmHg 57%
    12:00 +35°C° 0 mm 4 mps 753 mmHg 55%
    13:00 +36°C° 0 mm 4 mps 752 mmHg 53%
    14:00 +35°C° 0.1 mm 4 mps 752 mmHg 56%
    15:00 +34°C° 0.1 mm 4 mps 751 mmHg 59%
    16:00 +34°C° 0.1 mm 4 mps 751 mmHg 62%
    17:00 +32°C° 0 mm 4 mps 752 mmHg 68%
    18:00 +30°C° 0 mm 4 mps 752 mmHg 74%
    19:00 +28°C° 0 mm 4 mps 753 mmHg 81%
    20:00 +28°C° 0.3 mm 4 mps 753 mmHg 83%
    21:00 +28°C° 0.3 mm 4 mps 753 mmHg 85%
    22:00 +28°C° 0.3 mm 4 mps 753 mmHg 88%
    23:00 +27°C° 1.2 mm 4 mps 753 mmHg 90%
    Show more